When you browse on this site, cookies collect data to enhance your experience and personalize the content and advertising you see.
Visit our Privacy Policy to learn more. By continuing to use the site, you agree to this use of cookies and data.
  • In Romania
  • List of Countries
  • For 7 days
  • Water Temperature
  • Satellite Maps
  • Weather Map
  • Weather Widgets
  • user-avatar
    Login

    Hourly Weather Nakhchivan

    Today, 20 April, Saturday

    Time Temperature Precipitation Wind Pressure Humidity
    00:00 +10°C° 0.8 mm 2 mps 682 mmHg 61%
    01:00 +9°C° 1.3 mm 2 mps 681 mmHg 64%
    02:00 +9°C° 1.3 mm 2 mps 681 mmHg 67%
    03:00 +7°C° 0 mm 2 mps 680 mmHg 72%
    04:00 +7°C° 2 mm 2 mps 681 mmHg 74%
    05:00 +8°C° 2 mm 1 mps 681 mmHg 76%
    06:00 +7°C° 2 mm 1 mps 681 mmHg 78%
    07:00 +8°C° 0.7 mm 1 mps 682 mmHg 76%
    08:00 +8°C° 0.7 mm 1 mps 682 mmHg 75%
    09:00 +8°C° 0 mm 1 mps 682 mmHg 73%
    10:00 +9°C° 0.1 mm 1 mps 682 mmHg 68%
    11:00 +10°C° 0.1 mm 1 mps 683 mmHg 62%
    12:00 +11°C° 0.1 mm 1 mps 683 mmHg 57%
    13:00 +10°C° 0 mm 2 mps 683 mmHg 53%
    14:00 +12°C° 0 mm 2 mps 683 mmHg 49%
    15:00 +12°C° 0 mm 2 mps 683 mmHg 51%
    16:00 +12°C° 0 mm 1 mps 684 mmHg 49%
    17:00 +12°C° 0 mm 1 mps 684 mmHg 48%
    18:00 +12°C° 0 mm 1 mps 684 mmHg 47%
    19:00 +11°C° 0 mm 1 mps 684 mmHg 48%
    20:00 +11°C° 0 mm 1 mps 685 mmHg 50%
    21:00 +11°C° 0 mm 1 mps 685 mmHg 52%
    22:00 +10°C° 0 mm 1 mps 685 mmHg 52%
    23:00 +10°C° 0 mm 1 mps 685 mmHg 53%

    Tomorrow, 21 April, Sunday

    Time Temperature Precipitation Wind Pressure Humidity
    00:00 +10°C° 0 mm 1 mps 685 mmHg 53%
    01:00 +9°C° 0 mm 1 mps 685 mmHg 55%
    02:00 +9°C° 0 mm 1 mps 685 mmHg 56%
    03:00 +9°C° 0 mm 1 mps 685 mmHg 58%
    04:00 +9°C° 0 mm 1 mps 685 mmHg 58%
    05:00 +7°C° 0 mm 0 mps 685 mmHg 58%
    06:00 +7°C° 0 mm 0 mps 685 mmHg 58%
    07:00 +9°C° 0 mm 1 mps 685 mmHg 54%
    08:00 +10°C° 0 mm 1 mps 685 mmHg 49%
    09:00 +10°C° 0 mm 2 mps 685 mmHg 45%
    10:00 +13°C° 0 mm 2 mps 685 mmHg 43%
    11:00 +13°C° 0 mm 3 mps 685 mmHg 40%
    12:00 +14°C° 0 mm 4 mps 684 mmHg 38%
    13:00 +15°C° 0 mm 4 mps 684 mmHg 36%
    14:00 +15°C° 0 mm 5 mps 684 mmHg 33%
    15:00 +16°C° 0 mm 5 mps 684 mmHg 31%
    16:00 +15°C° 0 mm 6 mps 684 mmHg 33%
    17:00 +15°C° 0 mm 6 mps 684 mmHg 34%
    18:00 +14°C° 0 mm 6 mps 684 mmHg 35%
    19:00 +13°C° 0 mm 5 mps 684 mmHg 39%
    20:00 +12°C° 0 mm 5 mps 684 mmHg 42%
    21:00 +11°C° 0 mm 4 mps 685 mmHg 45%
    22:00 +10°C° 0 mm 3 mps 685 mmHg 46%
    23:00 +10°C° 0 mm 3 mps 685 mmHg 47%

    Day after tomorrow, 22 April, Monday

    Time Temperature Precipitation Wind Pressure Humidity
    00:00 +9°C° 0 mm 2 mps 685 mmHg 48%
    01:00 +9°C° 0 mm 2 mps 684 mmHg 49%
    02:00 +9°C° 0 mm 2 mps 684 mmHg 49%
    03:00 +9°C° 0 mm 2 mps 684 mmHg 49%
    04:00 +8°C° 0 mm 2 mps 684 mmHg 50%
    05:00 +9°C° 0 mm 1 mps 684 mmHg 50%
    06:00 +9°C° 0 mm 1 mps 684 mmHg 50%
    07:00 +10°C° 0 mm 1 mps 684 mmHg 47%
    08:00 +9°C° 0 mm 2 mps 684 mmHg 44%
    09:00 +10°C° 0 mm 2 mps 684 mmHg 41%
    10:00 +12°C° 0 mm 2 mps 683 mmHg 39%
    11:00 +12°C° 0 mm 2 mps 683 mmHg 37%
    12:00 +13°C° 0 mm 2 mps 683 mmHg 35%
    13:00 +13°C° 0 mm 2 mps 683 mmHg 35%
    14:00 +12°C° 0 mm 3 mps 683 mmHg 35%
    15:00 +13°C° 0 mm 3 mps 683 mmHg 35%
    16:00 +12°C° 0.1 mm 3 mps 684 mmHg 37%
    17:00 +11°C° 0.1 mm 3 mps 684 mmHg 40%
    18:00 +10°C° 0.1 mm 4 mps 684 mmHg 42%
    19:00 +10°C° 0.1 mm 3 mps 685 mmHg 43%
    20:00 +9°C° 0.1 mm 2 mps 686 mmHg 45%
    21:00 +9°C° 0.1 mm 2 mps 687 mmHg 46%
    22:00 +9°C° 0.1 mm 1 mps 687 mmHg 47%
    23:00 +9°C° 0.1 mm 1 mps 687 mmHg 49%

    23 April, Tuesday

    Time Temperature Precipitation Wind Pressure Humidity
    00:00 +8°C° 0.1 mm 0 mps 687 mmHg 50%
    01:00 +7°C° 0 mm 0 mps 687 mmHg 52%
    02:00 +7°C° 0 mm 0 mps 688 mmHg 55%
    03:00 +7°C° 0 mm 0 mps 688 mmHg 57%
    04:00 +8°C° 0 mm 1 mps 688 mmHg 59%
    05:00 +7°C° 0 mm 1 mps 688 mmHg 61%
    06:00 +7°C° 0 mm 1 mps 689 mmHg 63%
    07:00 +8°C° 0 mm 1 mps 689 mmHg 60%
    08:00 +8°C° 0 mm 1 mps 689 mmHg 56%
    09:00 +9°C° 0 mm 1 mps 689 mmHg 53%
    10:00 +10°C° 0 mm 1 mps 689 mmHg 49%
    11:00 +11°C° 0 mm 1 mps 689 mmHg 45%
    12:00 +12°C° 0 mm 1 mps 689 mmHg 40%
    13:00 +13°C° 0 mm 1 mps 689 mmHg 38%
    14:00 +13°C° 0 mm 1 mps 689 mmHg 35%
    15:00 +14°C° 0 mm 1 mps 689 mmHg 33%
    16:00 +14°C° 0 mm 2 mps 689 mmHg 33%
    17:00 +14°C° 0 mm 2 mps 689 mmHg 33%
    18:00 +13°C° 0 mm 3 mps 689 mmHg 34%
    19:00 +12°C° 0 mm 3 mps 690 mmHg 36%
    20:00 +11°C° 0 mm 3 mps 690 mmHg 37%
    21:00 +10°C° 0 mm 2 mps 691 mmHg 39%
    22:00 +10°C° 0 mm 2 mps 691 mmHg 42%
    23:00 +9°C° 0 mm 2 mps 691 mmHg 44%

    24 April, Wednesday

    Time Temperature Precipitation Wind Pressure Humidity
    00:00 +10°C° 0 mm 1 mps 691 mmHg 46%
    01:00 +10°C° 0 mm 1 mps 691 mmHg 48%
    02:00 +9°C° 0 mm 1 mps 691 mmHg 50%
    03:00 +9°C° 0 mm 1 mps 691 mmHg 52%
    04:00 +9°C° 0 mm 1 mps 691 mmHg 53%
    05:00 +9°C° 0 mm 1 mps 691 mmHg 54%
    06:00 +8°C° 0 mm 1 mps 692 mmHg 55%
    07:00 +9°C° 0 mm 1 mps 692 mmHg 52%
    08:00 +10°C° 0 mm 1 mps 692 mmHg 49%
    09:00 +10°C° 0 mm 2 mps 692 mmHg 46%
    10:00 +12°C° 0 mm 2 mps 692 mmHg 43%
    11:00 +13°C° 0 mm 2 mps 691 mmHg 39%
    12:00 +14°C° 0 mm 2 mps 691 mmHg 36%
    13:00 +15°C° 0 mm 2 mps 691 mmHg 33%
    14:00 +15°C° 0 mm 2 mps 690 mmHg 31%
    15:00 +16°C° 0 mm 2 mps 690 mmHg 28%
    16:00 +16°C° 0 mm 2 mps 690 mmHg 28%
    17:00 +16°C° 0 mm 2 mps 690 mmHg 28%
    18:00 +15°C° 0 mm 2 mps 690 mmHg 28%
    19:00 +14°C° 0 mm 2 mps 691 mmHg 30%
    20:00 +14°C° 0 mm 2 mps 691 mmHg 32%
    21:00 +13°C° 0 mm 2 mps 691 mmHg 35%
    22:00 +12°C° 0 mm 1 mps 691 mmHg 37%
    23:00 +12°C° 0 mm 1 mps 691 mmHg 39%

    25 April, Thursday

    Time Temperature Precipitation Wind Pressure Humidity
    00:00 +11°C° 0 mm 1 mps 691 mmHg 42%
    01:00 +11°C° 0 mm 1 mps 691 mmHg 44%
    02:00 +10°C° 0 mm 1 mps 691 mmHg 46%
    03:00 +10°C° 0 mm 1 mps 691 mmHg 49%
    04:00 +10°C° 0 mm 1 mps 691 mmHg 50%
    05:00 +9°C° 0 mm 1 mps 691 mmHg 51%
    06:00 +9°C° 0 mm 1 mps 692 mmHg 52%
    07:00 +10°C° 0 mm 1 mps 692 mmHg 48%
    08:00 +11°C° 0 mm 1 mps 692 mmHg 45%
    09:00 +12°C° 0 mm 2 mps 692 mmHg 42%
    10:00 +12°C° 0 mm 2 mps 692 mmHg 39%
    11:00 +13°C° 0 mm 2 mps 691 mmHg 36%
    12:00 +14°C° 0 mm 1 mps 691 mmHg 33%
    13:00 +15°C° 0 mm 2 mps 691 mmHg 31%
    14:00 +15°C° 0 mm 2 mps 691 mmHg 30%
    15:00 +16°C° 0 mm 2 mps 690 mmHg 28%
    16:00 +14°C° 0 mm 3 mps 690 mmHg 29%
    17:00 +14°C° 0 mm 3 mps 691 mmHg 31%
    18:00 +14°C° 0 mm 4 mps 691 mmHg 32%
    19:00 +13°C° 0 mm 3 mps 691 mmHg 35%
    20:00 +13°C° 0 mm 2 mps 692 mmHg 38%
    21:00 +13°C° 0 mm 2 mps 692 mmHg 41%
    22:00 +12°C° 0 mm 2 mps 692 mmHg 43%
    23:00 +12°C° 0 mm 1 mps 692 mmHg 45%
    Show more